Pokrovsk

Ukraine / Donetsk Region     48˚16′49″N   37˚10′32″E
temp.,
°C
wind,
m/s
gust,
m/s
humid.,
%
clouds,
%
prec.,
mm/h
press.,
hPa
HPBL,
m
3 december, thu
thu323:00ese5978100 0.0 1029532
02:00ese5983100 0.0 1029484
05:00−1˚ese5988100 0.6 1029447
08:00−1˚ese5988100 2.0 1029432
11:00−1˚ese5977100 0.6 1029455
14:00ese5978100 0.6 1029481
17:00+1˚ese61083100 0.0 1029517
20:00ese498696 0.0 1029533
4 december, fri
fri423:00ese5985100 0.0 1029459
02:00−1˚ese5978100 0.0 1029405
05:00−1˚ese498498 0.0 1028428
08:00−1˚ese698598 0.0 1029504
11:00+1˚ese6981100 0.0 1029558
14:00+2˚ese6978100 0.0 1029628
17:00+1˚ese61079100 0.0 1030624
20:00ese61179100 0.0 1030608
5 december, sat
sat523:00ese61077100 0.0 1030532
02:00−1˚e6107496 0.0 1031451
05:00−2˚e6117831 0.0 1031419
08:00−2˚e6127616 0.0 1032429
11:00+1˚e710630 0.0 1031497
14:00+2˚e711510 0.0 1032653
17:00−1˚e713450 0.0 1032444
20:00−3˚e613470 0.0 1033426
6 december, sun
sun623:00−3˚e613460 0.0 1034411
02:00−4˚ene613460 0.0 1034373
05:00−5˚ene613470 0.0 1034370
08:00−5˚ene712470 0.0 1035404
11:00−1˚e712360 0.0 1035544
14:00−1˚ene712370 0.0 1034585
17:00−4˚ene714630 0.0 1034462
20:00−5˚e713630 0.0 1035469
7 december, mon
mon723:00−6˚e714620 0.0 1035469
02:00−6˚e714600 0.0 1035463
05:00−6˚e715700 0.0 1034453
08:00−6˚e815670 0.0 1035489
11:00−2˚e914490 0.0 1035622
14:00−1˚e814460 0.0 1034669
17:00−4˚e714570 0.0 1034509
20:00−4˚e715570 0.0 1035487